W3DAK Weather Reports


Display with metric or nautical units.
time (UTC)temp
F
wind
direction
speed
MPH
gust
MPH
rain 1hr
in
rain 24hr
in
rain mn
in
humidity
%
barometer
mb
20260507040031 62 330 2.0 13.0 0.00 0.01 0.00 78 1009.6
20260507034630 63 330 7.0 11.0 0.00 0.01 0.01 81 1010.1
20260507033038 64 311 5.0 10.0 0.00 0.01 0.01 82 1009.6
20260507031527 64 332 6.0 12.0 0.00 0.01 0.01 81 1009.6
20260507030028 65 340 3.0 8.0 0.00 0.01 0.01 83 1009.6
20260507024527 66 355 4.0 9.0 0.00 0.01 0.01 82 1009.0
20260507023033 66 319 3.0 8.0 0.00 0.01 0.01 82 1009.2
20260507021525 67 343 4.0 10.0 0.00 0.01 0.01 82 1009.3
20260507020025 67 338 6.0 12.0 0.00 0.01 0.01 82 1009.0
20260507014524 67 319 2.0 8.0 0.00 0.01 0.01 83 1009.2
20260507013024 67 236 1.0 4.0 0.00 0.01 0.01 82 1009.0
20260507011525 67 239 2.0 5.0 0.00 0.01 0.01 82 1009.1
20260507010122 68 250 4.0 12.0 0.00 0.01 0.01 82 1008.9
20260507004532 68 239 5.0 10.0 0.00 0.01 0.01 82 1008.8
20260507003021 68 229 2.0 5.0 0.00 0.01 0.01 81 1008.7
20260507001520 68 255 3.0 7.0 0.00 0.01 0.01 81 1008.6
20260507000019 68 249 3.0 8.0 0.00 0.01 0.01 80 1008.5
20260506234520 68 196 3.0 10.0 0.00 0.01 0.01 80 1008.3
20260506233019 69 234 4.0 10.0 0.00 0.01 0.01 79 1008.1
20260506231517 69 221 1.0 7.0 0.00 0.01 0.01 78 1008.1
20260506230016 69 190 4.0 8.0 0.00 0.01 0.01 78 1008.0
20260506224516 70 186 5.0 8.0 0.00 0.01 0.01 78 1008.0
20260506223017 70 200 4.0 9.0 0.00 0.01 0.01 76 1008.0
20260506221515 70 209 3.0 8.0 0.00 0.01 0.01 76 1008.0
20260506220029 71 229 6.0 11.0 0.00 0.01 0.01 74 1007.9
20260506214513 71 250 4.0 10.0 0.00 0.01 0.01 74 1007.7
20260506213013 71 264 4.0 12.0 0.00 0.01 0.01 75 1007.8
20260506211511 71 214 5.0 10.0 0.00 0.01 0.01 74 1007.8
20260506210013 71 186 3.0 9.0 0.00 0.01 0.01 74 1007.4
20260506204511 71 215 3.0 11.0 0.00 0.01 0.01 74 1007.6
20260506203018 71 200 5.0 11.0 0.00 0.01 0.01 74 1007.5
20260506201509 71 192 5.0 13.0 0.00 0.01 0.01 74 1007.4
20260506200005 71 182 6.0 11.0 0.00 0.01 0.01 75 1007.5
20260506194608 70 290 4.0 13.0 0.00 0.01 0.01 76 1007.6
20260506193102 70 263 2.0 14.0 0.00 0.01 0.01 76 1007.6
20260506191608 69 200 4.0 14.0 0.00 0.01 0.01 78 1007.9
20260506190054 68 221 8.0 14.0 0.00 0.01 0.01 80 1008.2
20260506184552 67 238 5.0 16.0 0.00 0.01 0.01 82 1008.2
20260506183053 66 253 4.0 15.0 0.00 0.01 0.01 83 1008.3
20260506181556 66 263 8.0 15.0 0.00 0.01 0.01 84 1008.5
20260506180105 65 192 4.0 15.0 0.00 0.01 0.01 86 1008.6
20260506174546 64 205 3.0 16.0 0.00 0.01 0.01 88 1008.6
20260506173104 63 240 6.0 15.0 0.00 0.01 0.01 90 1008.7
20260506171546 63 204 6.0 12.0 0.00 0.01 0.01 91 1008.7
20260506170042 62 182 4.0 12.0 0.00 0.01 0.01 91 1008.9
20260506164539 62 217 4.0 15.0 0.00 0.01 0.01 92 1008.9
20260506163039 62 230 6.0 14.0 0.00 0.01 0.01 92 1009.0
20260506161536 61 205 5.0 18.0 0.00 0.01 0.01 92 1009.2
20260506160036 62 221 3.0 10.0 0.00 0.01 0.01 92 1009.3
20260506154532 61 234 4.0 12.0 0.00 0.01 0.01 92 1009.0
20260506153030 61 275 6.0 12.0 0.00 0.01 0.01 92 1009.6
20260506151529 61 203 6.0 13.0 0.00 0.01 0.01 91 1010.0
20260506150025 62 158 6.0 14.0 0.00 0.01 0.01 90 1010.0
20260506144523 62 213 6.0 12.0 0.01 0.01 0.01 90 1010.0
20260506143025 62 215 3.0 10.0 0.01 0.01 0.01 89 1009.8
20260506141521 62 219 5.0 11.0 0.01 0.01 0.01 88 1010.0
20260506140017 63 226 6.0 10.0 0.01 0.01 0.01 86 1010.3
20260506134515 64 162 5.0 13.0 0.00 0.00 0.00 84 1010.4
20260506133017 64 205 4.0 10.0 0.00 0.00 0.00 82 1010.2
20260506131514 65 171 6.0 16.0 0.00 0.00 0.00 81 1010.1
20260506130016 65 213 4.0 12.0 0.00 0.00 0.00 81 1009.7
20260506124511 65 179 3.0 12.0 0.00 0.00 0.00 80 1009.8
20260506123013 65 205 6.0 11.0 0.00 0.00 0.00 79 1010.2
20260506121508 65 229 5.0 10.0 0.00 0.00 0.00 78 1010.3
20260506120020 65 214 5.0 12.0 0.00 0.00 0.00 77 1010.2
20260506114506 65 169 3.0 12.0 0.00 0.00 0.00 78 1009.9
20260506113006 65 168 6.0 14.0 0.00 0.00 0.00 79 1009.8
20260506111504 64 230 4.0 10.0 0.00 0.00 0.00 81 1009.7
20260506110004 63 226 5.0 11.0 0.00 0.00 0.00 83 1009.6
20260506104501 63 190 3.0 7.0 0.00 0.00 0.00 83 1009.4
20260506103057 62 209 2.0 7.0 0.00 0.00 0.00 84 1009.4
20260506101554 62 198 4.0 11.0 0.00 0.00 0.00 84 1009.4
20260506094608 63 208 2.0 7.0 0.00 0.00 0.00 83 1009.5
20260506093050 63 137 3.0 6.0 0.00 0.00 0.00 82 1009.4
20260506091548 63 190 3.0 6.0 0.00 0.00 0.00 81 1009.4
20260506090045 64 158 4.0 7.0 0.00 0.00 0.00 81 1009.7
20260506084548 64 194 3.0 8.0 0.00 0.00 0.00 80 1009.7
20260506083046 64 220 3.0 9.0 0.00 0.00 0.00 80 1009.5
20260506081541 64 205 4.0 9.0 0.00 0.00 0.00 80 1009.4
20260506073036 65 212 3.0 6.0 0.00 0.00 0.00 78 1009.6
20260506071534 65 177 3.0 8.0 0.00 0.00 0.00 77 1009.7
20260506061528 66 180 2.0 6.0 0.00 0.00 0.00 73 1010.1
20260506044519 67 157 2.0 5.0 0.00 0.00 0.00 64 1010.4
20260506043017 67 160 2.0 6.0 0.00 0.00 0.00 64 1010.4
20260506041513 67 197 2.0 5.0 0.00 0.00 0.00 64 1010.5